Temperatura - Umidità - Pioggia orarie del 07-02-2023

Intensità - Direzione vento orarie del 07-02-2023

Dati orari da stazione meteo del 07-02-2023

Nome Stazione Data Ora Temperatura [°C] Umidità [%] Pioggia [mm] Intensità vento[km/h] Direzione vento [°]
Savigliano 06-02-2023 01:00 2.2 88.7 0 4 289
Savigliano 06-02-2023 02:00 2.2 90.1 0 4.3 293
Savigliano 06-02-2023 03:00 1.9 88.9 0 2.9 242
Savigliano 06-02-2023 04:00 1.8 88.9 0 1.1 291
Savigliano 06-02-2023 05:00 1.9 87.8 0 0.7 213
Savigliano 06-02-2023 06:00 1.6 90.2 0 0 178
Savigliano 06-02-2023 07:00 1.9 89.6 0 0.4 175
Savigliano 06-02-2023 08:00 0.8 88.7 0 0 167
Savigliano 06-02-2023 09:00 1.1 89.7 0 0.4 169
Savigliano 06-02-2023 10:00 3.2 89 0 0.4 167
Savigliano 06-02-2023 11:00 4.4 74.1 0 2.2 63
Savigliano 06-02-2023 12:00 4.9 69.5 0 2.2 150
Savigliano 06-02-2023 13:00 6.9 64.9 0 1.4 223
Savigliano 06-02-2023 14:00 7.1 59.4 0 2.2 200
Savigliano 06-02-2023 15:00 7.1 61.2 0 4 184
Savigliano 06-02-2023 16:00 6.6 59.1 0 2.9 66
Savigliano 06-02-2023 17:00 5.6 61.9 0 4 72
Savigliano 06-02-2023 18:00 4.4 64.1 0 3.6 60
Savigliano 06-02-2023 19:00 4.5 65.1 0 3.2 56
Savigliano 06-02-2023 20:00 4.5 64.5 0 2.5 145
Savigliano 06-02-2023 21:00 4.2 65.8 0 2.2 271
Savigliano 06-02-2023 22:00 3.2 70.3 0 2.5 177
Savigliano 06-02-2023 23:00 2.1 71.8 0 2.9 296
Savigliano 07-02-2023 00:00 2 74.9 0 2.9 324
Savigliano 07-02-2023 01:00 2 82.2 0 4.7 302
Savigliano 07-02-2023 02:00 1.5 87.6 0 5.8 278
Savigliano 07-02-2023 03:00 1.7 85.4 0 6.8 232
Savigliano 07-02-2023 04:00 -0.2 82.9 0 8.6 172
Savigliano 07-02-2023 05:00 -0.9 83.5 0 5.8 296
Savigliano 07-02-2023 06:00 -0.1 84.1 0 5.8 265
Savigliano 07-02-2023 07:00 -0.5 81.6 0 3.2 310
Savigliano 07-02-2023 08:00 -0.4 81.1 0 1.4 269
Savigliano 07-02-2023 09:00 0.8 76 0 1.1 320
Savigliano 07-02-2023 10:00 2 71.8 0 0.7 314
Savigliano 07-02-2023 11:00 2.7 66.2 0 1.1 228
Savigliano 07-02-2023 12:00 2.1 64.7 0 5 207
Savigliano 07-02-2023 13:00 4.1 58 0 5.8 189
Savigliano 07-02-2023 14:00 4.3 47.1 0 6.8 168
Savigliano 07-02-2023 15:00 5.3 48 0 4.7 169
Savigliano 06-02-2023 11:20 0 0 0 0 176
Savigliano 06-02-2023 19:40 0 0 0 0 120
Savigliano 07-02-2023 12:20 0 0 0 0 274

Riassuntivo giornaliero del 07-02-2023